Hourly Data Report for August 02, 2015

IQALUIT CLIMATE
NUNAVUT

63°44'50.000" N
68°32'40.000" W
33.50 m
2402592
71321
XFB

Download Data

Hourly Data (August 2015)
Hourly Data Report for August 2, 2015
TIME
LST
Temp Definition
°C
Dew Point Definition
°C
Rel Hum Definition
%
Precip. Amount Definition
mm

Wind Dir Definition
10's deg

Wind Spd Definition
km/h
Visibility Definition
km
Stn Press Definition
kPa
Hmdx Definition


Wind Chill Definition


Weather Definition


00:00 3.4 3.0 97 0.0 15 4   100.68     LegendNANA
01:00 3.8 3.4 98 1.4 15 6   100.70     LegendNANA
02:00 4.4 4.2 99 0.2 14 5   100.73     LegendNANA
03:00 4.1 3.9 99 0.0 16 7   100.77     LegendNANA
04:00 3.0 2.9 99 0.4 15 8   100.81     LegendNANA
05:00 4.1 4.0 99 0.0 13 4   100.86     LegendNANA
06:00 4.2 4.1 99 0.3 15 9   100.89     LegendNANA
07:00 3.5 3.3 99 0.0 14 13   100.92     LegendNANA
08:00 3.9 3.7 99 0.0 15 20   100.97     LegendNANA
09:00 4.4 4.2 98 0.0 14 17   101.01     LegendNANA
10:00 3.9 3.7 98 0.0 16 11   101.06     LegendNANA
11:00 3.3 2.9 98 0.0 14 13   101.13     LegendNANA
12:00 5.9 5.6 98 0.0 16 12   101.17     LegendNANA
13:00 5.0 4.0 93 0.0 16 10   101.23     LegendNANA
14:00 5.3 4.1 92 0.0 17 15   101.28     LegendNANA
15:00 5.7 4.7 94 0.0 15 12   101.34     LegendNANA
16:00 5.8 4.9 94 0.0 15 11   101.37     LegendNANA
17:00 4.6 3.8 95 0.0 13 6   101.42     LegendNANA
18:00 5.3 4.2 93 0.0 17 11   101.46     LegendNANA
19:00 4.2 3.3 94 0.0 13 13   101.49     LegendNANA
20:00 4.1 3.1 94 0.0 15 8   101.53     LegendNANA
21:00 3.6 2.9 95 0.0 15 12   101.55     LegendNANA
22:00 3.5 3.0 97 0.0 15 9   101.60     LegendNANA
23:00 3.7 3.2 97 0.0 15 11   101.62     LegendNANA

Notes on Data Quality.

Legend

  • E = Estimated
  • M = Missing
  • NA = Not Available*
  • [empty] = Indicates an unobserved value
Date modified: